GEFSNGP_con_probscp_240.txt.gz
Probability
0 1 2 3 3 3 2 2 3 5 8 11 13 14 17 22 29 34 34 30 26 23 21 21 20 19 18 20 21 23 24 26 25 21 16 13 8 4 3 3 3 4 4 4
0 1 2 3 4 4 4 5 4 5 8 11 12 14 17 22 28 32 32 30 26 23 21 20 19 17 16 17 20 23 25 25 24 21 17 13 9 7 7 6 6 6 6 5
0 1 2 3 5 7 8 7 6 7 9 13 14 16 19 23 29 31 31 31 28 25 24 21 18 15 14 15 18 21 23 24 23 21 19 15 12 12 11 10 9 9 9 9
0 0 1 2 5 8 9 9 10 11 14 17 20 22 23 26 30 31 31 32 30 28 28 26 20 15 14 15 16 19 20 22 23 23 21 18 16 15 14 12 11 11 12 12
0 0 1 2 4 6 8 11 14 16 19 23 25 27 27 29 31 30 30 30 28 28 30 28 22 17 16 16 17 19 20 22 24 23 22 20 20 20 18 16 15 15 15 14
0 0 1 2 3 5 8 11 13 16 21 24 27 28 27 27 27 25 26 27 26 27 29 27 23 20 18 18 20 22 22 22 23 21 20 20 21 21 21 20 19 19 17 15
0 0 1 3 4 5 7 9 11 15 18 20 23 25 25 24 22 20 21 25 25 25 26 24 21 19 18 19 21 22 21 20 18 16 17 18 19 20 22 22 21 20 17 15
0 1 2 4 5 6 8 9 11 13 16 17 20 22 22 22 19 15 15 19 23 25 24 20 18 16 16 16 16 17 17 15 13 12 13 14 17 20 21 22 22 20 17 16
2 4 6 7 7 9 11 11 11 13 15 18 20 21 21 19 15 11 11 14 19 23 23 19 15 14 12 11 12 14 15 13 11 10 10 12 15 17 18 20 21 19 17 16
5 7 9 10 11 12 13 13 12 14 17 20 21 21 20 17 13 10 10 13 16 18 19 16 13 12 10 9 10 12 13 12 11 10 10 11 12 14 15 17 19 19 17 15
4 6 8 11 12 14 14 13 15 17 19 21 22 21 18 15 12 10 12 13 13 13 13 11 9 10 10 9 10 12 12 11 10 9 10 10 10 10 11 13 14 14 14 13
2 4 7 9 11 13 13 14 17 21 23 23 22 20 16 14 13 13 13 13 11 9 9 8 9 11 11 11 12 13 12 10 8 8 10 11 10 9 9 8 8 8 7 8
4 6 8 9 9 10 12 13 16 21 23 24 22 19 16 15 15 15 14 13 11 8 8 9 10 12 13 13 14 13 12 9 8 8 9 10 9 9 8 7 5 3 2 2
7 8 10 10 10 10 10 11 14 18 21 22 20 18 16 17 17 17 16 14 13 11 10 10 11 12 13 16 16 15 12 10 8 8 9 8 8 9 9 9 7 4 2 1
8 9 11 11 11 10 11 12 14 16 18 19 17 16 16 16 16 17 17 16 15 15 13 11 11 11 15 18 18 16 13 10 9 9 9 9 8 9 10 11 10 8 5 3
9 9 9 9 9 9 10 12 14 15 16 15 13 13 15 15 14 15 15 15 15 15 13 11 12 14 17 19 19 16 13 10 10 11 10 10 9 9 10 12 12 10 6 5
7 7 6 5 6 8 9 10 11 11 11 11 10 10 13 14 13 12 12 12 13 13 12 12 13 17 19 20 20 17 12 9 9 10 10 9 8 8 9 11 12 9 6 4
4 4 3 3 4 5 7 7 6 6 6 7 7 9 12 14 13 11 11 11 11 11 11 11 13 16 18 20 21 19 14 10 8 8 9 8 7 5 6 8 9 8 4 2
2 1 1 1 1 2 4 4 4 4 4 5 6 8 11 13 13 10 10 11 11 10 10 10 11 12 14 18 20 19 17 13 9 7 7 7 6 4 3 5 7 6 2 1
1 1 0 0 0 0 1 2 3 4 5 6 6 7 10 10 10 9 9 10 11 11 10 10 10 9 12 15 16 16 16 14 10 7 6 6 5 4 3 4 4 3 1 0
2 1 0 0 0 0 0 1 2 3 5 6 6 6 7 7 7 8 9 10 11 11 10 10 10 10 12 14 15 14 14 13 11 8 6 4 4 4 4 4 3 2 1 0
1 1 0 0 0 1 1 2 3 3 4 4 4 4 4 4 5 7 8 9 10 10 10 9 9 10 12 13 13 13 12 12 10 7 5 4 4 5 6 5 4 2 0 0
0 0 1 1 1 2 3 3 3 3 3 3 3 3 3 3 4 5 6 7 7 8 9 9 8 9 9 10 12 12 11 10 7 5 5 5 5 5 6 6 4 2 0 0
0 1 2 2 3 3 3 3 3 3 3 3 3 3 2 2 2 3 5 6 5 5 6 7 6 6 6 8 10 10 10 8 6 4 4 3 3 4 4 4 2 1 0 0
1 2 3 3 3 3 3 3 3 3 3 3 2 1 1 1 1 2 5 5 4 4 4 4 3 2 3 6 8 9 9 8 6 4 3 2 2 2 3 3 2 1 0 0
1 2 3 4 3 3 3 3 3 3 2 1 1 0 0 0 1 2 3 3 3 3 3 3 2 1 1 4 6 7 6 5 4 3 2 2 2 3 3 3 2 1 0 0
2 2 3 4 4 3 2 3 3 3 1 0 0 0 0 1 3 3 2 1 2 3 3 3 1 0 1 3 5 5 4 2 1 1 1 2 3 3 3 3 3 1 0 0

GEFSNGP_con_probscp_246.txt.gz
Probability
3 4 5 6 5 4 3 2 1 2 4 6 7 7 8 10 13 13 13 13 14 14 13 11 10 8 8 7 7 11 14 14 11 8 7 5 4 5 7 7 5 3 2 2
3 3 4 5 5 4 4 3 3 3 4 4 6 6 7 9 12 13 14 16 18 18 17 16 13 11 10 9 8 11 13 14 13 11 11 9 8 8 9 8 5 3 2 1
3 3 3 3 4 5 6 6 5 5 5 4 5 5 6 8 11 14 17 19 19 20 21 20 16 12 10 9 9 10 11 12 14 15 16 15 14 13 12 10 8 5 4 3
3 2 1 1 1 3 5 7 7 5 6 7 8 7 7 9 13 17 19 18 18 19 19 18 14 10 10 10 9 9 9 9 12 15 17 17 16 14 13 12 11 10 8 8
2 1 0 0 1 1 3 5 6 6 8 11 12 12 11 12 16 19 18 17 17 16 15 12 8 8 10 12 11 9 7 7 9 13 14 14 13 13 13 13 13 13 12 11
1 1 0 1 2 2 2 3 4 6 9 11 12 13 14 16 18 18 17 16 16 14 10 6 5 6 10 13 13 9 7 6 8 10 11 11 11 11 11 12 13 14 13 12
0 0 0 1 3 4 3 4 4 6 9 9 8 10 13 17 19 19 18 16 14 11 8 4 4 5 9 12 11 8 6 7 7 7 7 7 8 8 9 11 12 14 12 10
0 0 0 2 3 4 5 5 5 6 7 8 8 11 14 18 20 20 18 14 10 8 7 5 4 7 8 8 7 6 6 6 5 5 5 5 5 6 7 9 12 13 13 12
0 0 0 1 3 4 5 5 6 7 7 9 12 14 16 18 18 16 13 9 6 5 5 5 6 7 6 4 4 5 5 4 4 4 4 5 5 6 7 9 10 12 14 15
0 0 0 2 4 5 4 5 6 7 8 10 12 14 15 16 14 10 7 5 4 4 4 6 6 6 4 2 3 4 4 3 3 4 5 5 6 7 9 9 11 12 14 15
1 1 1 3 6 6 4 5 7 8 9 9 9 10 11 11 9 6 5 4 4 5 5 7 6 4 3 2 2 3 3 3 4 5 6 6 5 7 8 8 9 10 11 11
2 2 3 5 6 5 5 5 7 9 9 8 7 7 8 8 7 6 6 5 5 5 6 6 6 4 3 2 3 3 3 3 3 5 6 6 5 4 5 5 5 5 5 6
3 3 4 5 5 5 5 5 7 9 9 9 9 9 9 8 7 6 6 6 6 5 5 6 6 4 3 3 4 4 3 3 3 4 5 6 4 3 3 3 2 1 1 1
2 3 4 4 4 5 4 5 7 9 11 11 12 11 10 8 8 7 6 7 7 5 4 5 6 5 4 4 5 5 4 3 3 4 6 7 5 4 3 3 2 1 0 1
3 3 2 3 4 5 5 5 8 10 11 11 11 10 9 8 8 7 6 7 7 5 4 4 5 5 5 4 4 5 5 4 4 5 6 7 6 4 3 3 3 2 1 2
4 4 3 3 4 5 6 8 9 10 9 8 9 9 9 9 8 7 5 5 5 5 4 4 4 4 4 4 4 5 5 4 4 6 7 7 6 4 3 3 3 2 1 2
4 4 4 3 3 5 7 8 9 9 7 6 6 6 7 7 7 6 5 4 5 6 7 6 3 2 2 3 3 3 3 3 4 6 6 6 5 3 2 3 2 1 0 1
2 2 1 1 2 4 5 6 7 7 6 5 4 4 4 5 4 4 6 6 7 8 9 7 4 1 2 2 2 1 2 3 5 6 6 5 4 2 2 2 1 0 0 0
0 0 0 0 1 2 3 4 4 4 3 3 3 3 3 3 3 4 7 10 10 10 10 7 4 2 3 3 2 2 3 4 5 6 6 4 3 3 2 2 1 1 1 1
0 0 0 0 1 2 3 3 3 3 3 3 3 3 3 3 4 5 7 10 10 9 8 5 3 3 4 4 2 3 4 5 5 6 6 5 4 4 4 3 2 3 2 2
0 0 0 0 1 2 2 2 2 2 2 2 2 2 3 3 3 4 5 6 6 6 5 3 2 2 3 2 2 4 7 7 7 7 7 6 5 5 5 4 3 3 3 3
0 0 0 0 0 1 1 1 1 1 1 1 1 1 1 2 2 2 2 2 2 2 1 1 1 0 1 1 1 4 7 8 8 8 7 6 6 6 6 5 4 3 3 3
0 0 0 0 0 0 0 0 0 0 0 0 0 0 0 1 1 1 1 0 0 0 0 0 0 0 0 0 0 2 4 6 7 7 8 7 7 8 8 7 5 3 3 3
0 0 0 0 0 0 0 0 0 0 0 0 0 0 0 0 0 0 0 0 0 0 0 0 0 0 0 0 0 1 3 4 5 6 7 7 7 8 8 7 5 4 3 3
0 0 0 0 0 0 0 0 0 0 0 1 1 1 0 0 0 0 0 0 0 0 0 0 0 0 0 0 0 1 2 3 4 6 6 6 6 6 6 6 4 3 3 3
0 0 0 0 0 0 1 1 1 1 1 2 2 1 0 0 0 0 0 0 0 0 0 0 0 0 0 0 0 0 1 1 3 4 5 5 6 5 4 3 1 1 2 2
0 0 0 0 0 1 2 2 2 2 2 2 2 1 0 0 0 0 0 0 0 0 0 0 0 0 0 0 0 0 0 0 1 2 3 4 4 4 3 1 0 0 1 1

GEFSNGP_con_probscp_252.txt.gz
Probability
1 1 1 0 0 1 1 2 4 4 5 9 14 12 11 12 11 11 16 22 27 32 37 39 38 36 34 31 28 27 25 24 22 19 16 15 15 14 14 16 18 19 18 16
2 2 2 1 2 3 3 3 3 2 4 9 12 11 9 9 9 11 15 21 27 33 38 39 38 37 35 32 30 30 28 26 22 19 18 17 16 15 15 17 19 19 19 18
4 3 3 4 5 5 6 5 4 4 7 11 12 11 8 7 9 12 17 23 29 35 39 39 37 37 38 37 36 35 32 29 25 21 19 19 19 19 20 21 22 23 23 22
4 4 4 6 6 6 7 7 8 9 11 13 13 11 9 9 12 16 22 30 35 37 38 37 35 35 37 39 41 40 35 31 28 25 22 21 22 25 26 26 26 27 26 23
4 3 5 6 6 6 7 8 10 12 13 13 12 12 12 13 17 20 25 33 38 39 39 37 35 34 35 37 41 40 34 30 29 28 26 25 28 31 31 29 29 27 25 23
2 3 4 5 4 5 7 7 9 12 14 14 13 14 18 21 22 23 27 32 36 38 38 37 36 35 35 36 37 35 31 28 28 29 29 30 32 33 32 30 28 26 25 25
3 4 4 4 3 4 6 6 8 13 17 18 17 21 26 28 26 26 29 31 33 36 37 36 35 34 34 34 33 31 29 28 27 27 28 29 30 30 29 27 25 23 24 25
4 5 5 3 3 4 6 7 9 14 18 20 22 25 28 30 29 28 31 32 33 35 36 36 34 33 32 31 30 28 27 27 25 24 23 24 27 27 25 23 21 19 20 21
5 5 4 3 3 4 6 8 10 14 17 19 22 25 26 28 29 30 33 34 34 36 37 36 35 33 33 31 29 26 25 24 23 22 21 22 26 27 25 21 19 18 18 19
5 3 2 3 4 5 7 9 12 15 17 19 24 27 28 27 28 31 34 34 34 35 36 36 34 32 32 31 29 26 24 24 24 22 22 25 27 26 23 21 21 21 22 22
6 4 4 5 6 7 9 11 13 15 17 20 26 31 31 27 27 31 34 35 33 33 34 34 32 30 29 30 28 26 25 24 22 20 21 25 25 21 17 15 17 20 22 22
6 7 8 9 9 9 10 12 13 14 16 20 25 30 30 27 26 29 33 35 34 33 33 32 31 29 28 28 26 24 23 22 19 16 17 19 19 15 10 8 8 9 11 11
8 9 11 12 11 10 10 11 11 12 14 19 24 26 27 25 25 28 32 34 34 33 31 30 30 29 27 26 24 22 20 18 15 14 12 13 14 13 11 8 5 3 2 3
10 11 13 14 12 11 11 10 11 11 12 15 18 20 20 22 24 27 30 32 33 31 28 27 26 26 24 23 22 20 19 16 15 14 13 12 13 14 13 12 10 7 3 1
11 13 15 14 12 12 12 11 10 10 10 11 13 15 15 17 21 24 26 27 28 27 25 24 23 23 22 20 20 20 19 17 16 15 13 13 13 12 11 11 12 11 8 6
13 14 14 13 13 13 13 11 10 9 9 10 12 13 15 16 19 21 23 23 23 23 23 23 24 23 21 20 19 21 20 17 14 14 14 13 11 10 9 8 10 13 14 12
14 14 12 12 13 14 13 12 12 11 11 12 12 13 14 15 17 19 21 21 21 20 20 21 23 23 21 20 20 21 20 17 13 13 15 15 12 11 12 11 12 15 16 13
12 11 9 10 12 13 12 12 12 13 13 12 12 12 11 12 14 16 17 17 17 18 18 18 18 19 19 18 20 20 19 17 14 12 14 15 14 15 16 16 16 18 16 13
8 7 7 8 10 11 11 11 11 11 11 11 11 10 9 8 9 10 11 12 13 15 16 15 14 14 14 14 16 17 15 13 11 10 12 15 16 16 17 17 18 19 17 14
5 5 6 7 9 10 10 10 10 10 10 10 9 9 7 7 7 7 8 10 11 13 14 13 12 11 11 10 10 11 11 10 9 10 13 17 16 14 14 14 16 17 16 14
5 5 6 7 9 10 10 10 10 10 9 8 8 7 6 6 6 6 7 9 10 11 12 11 10 9 8 7 7 8 10 9 8 10 13 16 14 11 11 12 13 13 13 12
6 6 7 9 9 9 9 9 9 9 7 6 5 5 5 5 5 6 6 6 6 6 7 7 6 5 6 6 6 6 7 6 7 9 10 9 8 6 7 9 11 12 12 11
8 8 9 10 9 9 7 7 7 7 6 5 4 4 5 5 5 5 4 3 2 2 2 2 2 2 3 4 4 4 3 4 5 6 5 4 3 3 5 7 9 11 11 9
8 9 10 9 8 7 6 5 5 6 6 5 5 5 5 5 4 3 1 1 0 0 0 0 0 0 1 3 3 3 2 2 3 2 2 2 3 4 6 6 7 9 9 8
6 7 7 6 6 5 4 5 5 5 6 5 4 3 3 2 1 1 0 0 0 0 0 0 0 0 1 2 3 3 2 1 1 0 1 3 5 5 6 6 7 8 8 8
3 4 4 4 4 4 4 4 4 4 3 3 1 1 1 0 0 0 0 0 0 0 0 0 0 0 1 2 3 2 1 0 0 0 1 3 5 4 4 5 5 5 6 6
2 3 4 3 3 4 4 3 3 3 2 1 0 0 0 0 0 0 0 0 0 0 0 0 0 0 1 2 3 1 0 0 0 1 2 3 4 4 4 4 4 4 4 4

GEFSNGP_con_probscp_258.txt.gz
Probability
0 0 0 0 0 0 0 0 2 6 11 17 21 22 24 27 32 36 40 46 54 61 66 71 73 69 60 54 54 55 54 51 47 44 43 43 42 37 29 24 24 27 30 31
0 0 0 0 0 0 0 1 3 7 15 21 23 23 24 26 30 34 39 45 51 58 63 69 71 69 63 56 54 54 54 53 52 50 48 46 43 37 31 26 26 28 31 33
0 0 0 0 1 2 2 4 6 10 16 21 22 23 24 26 30 34 39 45 50 54 60 65 67 66 63 58 53 52 53 55 57 55 52 47 42 37 34 33 33 33 34 35
0 0 1 2 4 4 6 9 11 14 17 18 19 21 24 28 32 35 40 47 51 53 57 61 62 62 60 56 53 51 52 54 56 55 52 47 43 39 39 40 39 37 35 35
0 1 3 5 7 7 8 12 16 19 18 17 18 19 25 31 35 35 38 47 52 52 53 57 59 58 57 54 51 51 52 52 52 52 52 50 47 44 44 43 39 35 35 35
1 3 5 7 8 8 9 13 19 21 20 19 20 23 31 38 40 38 38 45 51 51 54 57 58 58 56 53 50 49 49 49 48 49 52 52 50 48 46 44 39 34 34 37
4 4 6 8 9 10 15 20 23 23 22 23 27 33 39 44 46 44 44 47 50 53 57 59 59 59 58 56 52 49 46 45 45 47 48 49 50 49 48 46 41 36 34 36
8 10 13 15 16 19 26 29 27 27 28 31 37 40 43 46 47 47 49 49 51 55 58 58 57 58 58 57 54 50 46 44 44 44 43 44 46 47 47 45 42 37 33 33
15 18 21 21 23 27 30 32 30 30 33 37 40 40 42 46 47 46 47 48 49 52 54 53 53 54 55 54 52 51 48 46 45 44 43 42 42 42 42 43 41 36 33 32
20 20 20 19 20 25 27 28 28 29 33 36 36 36 40 45 46 43 43 45 47 48 50 49 47 48 49 48 49 50 49 48 47 45 45 44 41 37 36 38 38 36 33 30
19 18 16 15 17 22 25 26 25 26 30 33 31 32 37 41 42 40 42 44 45 46 47 45 42 42 43 44 46 49 49 46 44 42 43 44 40 32 27 26 26 25 24 23
18 17 18 18 19 22 24 25 24 25 29 30 29 30 34 36 37 39 41 43 42 40 41 40 39 39 41 41 43 47 46 40 36 35 39 40 36 28 20 14 10 8 9 10
18 17 19 20 20 20 19 20 23 25 27 27 26 28 30 31 33 35 37 39 38 36 36 36 37 37 37 37 39 41 40 33 29 31 33 33 31 27 21 12 6 3 2 1
18 17 18 19 19 15 12 13 18 21 22 22 23 24 26 27 30 32 32 33 34 35 34 33 32 31 31 32 34 35 33 28 26 28 27 26 26 26 23 18 14 10 5 3
17 16 16 17 15 12 8 9 13 15 16 18 19 21 21 23 26 27 26 27 29 31 31 28 26 26 27 29 30 31 28 23 22 23 22 21 22 22 21 21 21 19 13 9
15 16 16 14 12 9 7 8 11 13 14 15 16 17 17 18 19 19 18 20 23 26 27 26 25 25 25 26 27 27 23 18 17 18 18 19 20 20 20 22 24 23 18 14
16 16 14 11 9 9 9 10 11 13 14 14 13 13 13 14 15 14 14 17 21 23 24 25 24 22 21 21 22 21 17 13 13 16 18 19 20 20 20 22 24 22 17 13
16 14 10 8 9 11 11 12 13 12 13 13 12 11 12 14 16 15 14 16 18 19 20 21 20 18 16 14 14 13 12 12 13 16 18 20 20 21 21 22 21 19 15 12
12 9 7 7 9 11 12 14 14 12 11 11 11 10 11 13 15 15 14 13 14 15 16 16 15 14 13 10 8 9 11 12 15 17 19 19 19 20 21 21 19 16 14 12
7 6 5 6 7 8 11 13 13 11 10 10 10 10 10 11 13 13 12 11 12 14 13 11 11 12 12 9 6 7 11 12 13 16 17 17 18 18 18 17 15 13 11 11
7 6 5 5 6 8 11 13 13 11 10 10 10 10 10 10 11 11 11 11 12 12 9 6 6 8 10 10 7 7 10 11 12 13 14 15 15 15 14 12 9 8 7 7
9 8 7 7 8 10 13 15 14 11 10 10 10 10 10 10 10 10 10 9 9 7 4 2 3 4 7 9 8 7 8 10 11 11 11 11 11 10 9 6 4 4 4 5
11 11 9 10 11 13 15 16 14 12 11 10 10 10 10 9 9 8 7 6 4 2 1 0 1 2 4 6 6 6 6 7 8 8 6 5 5 4 3 3 3 3 3 3
13 13 12 13 14 15 16 15 13 12 11 10 9 9 9 8 7 5 4 2 1 1 0 0 0 1 2 3 3 3 3 4 5 3 2 1 1 1 1 2 3 3 3 3
15 15 14 14 14 15 15 13 11 10 9 9 8 7 7 7 6 3 1 0 0 0 0 0 0 0 1 2 1 1 1 2 2 1 0 0 1 1 2 3 3 3 4 4
15 14 13 12 13 12 12 10 8 7 7 7 6 5 5 5 4 2 1 0 0 0 0 0 0 0 0 0 0 0 0 0 0 0 0 1 2 3 3 3 3 4 4 4
13 13 12 12 11 10 9 8 7 6 6 6 6 5 3 2 2 1 0 0 0 0 0 0 0 0 0 0 0 0 0 0 0 0 1 2 3 3 3 3 4 5 4 3

GEFSNGP_con_probscp_264.txt.gz
Probability
0 0 0 0 1 1 0 0 1 5 11 12 10 11 13 18 23 26 24 19 15 17 21 23 25 32 38 37 32 30 31 30 27 24 21 17 13 14 16 16 15 14 13 12
0 0 0 1 2 2 1 1 2 6 10 10 10 12 16 22 27 28 25 20 17 18 21 25 29 34 38 35 31 29 30 31 29 26 22 18 15 15 16 17 17 15 13 12
0 0 0 1 3 4 3 3 4 8 10 10 12 15 21 28 35 34 27 21 19 19 22 28 33 37 37 33 30 30 31 32 32 28 24 20 17 16 16 16 17 16 14 12
0 0 0 1 3 4 5 5 6 9 12 16 18 22 27 34 39 35 27 21 21 23 27 31 34 36 35 31 28 30 32 33 31 28 25 22 19 17 17 17 18 16 13 12
0 0 0 1 2 3 4 5 7 11 15 20 24 27 30 34 36 33 26 23 24 28 32 34 32 31 31 29 28 29 31 33 31 28 25 24 22 21 21 22 22 18 14 12
0 1 1 2 2 1 2 4 8 13 18 21 24 24 25 29 32 31 28 26 27 31 34 34 31 29 30 30 29 29 30 31 31 30 27 24 22 22 23 24 23 20 17 15
0 1 2 2 1 0 1 4 9 14 20 22 21 19 21 27 31 31 29 28 29 31 33 31 30 31 32 31 29 28 28 28 30 30 28 24 21 20 21 22 21 19 17 16
1 1 3 3 2 1 3 8 13 18 22 24 22 22 25 29 31 30 28 27 28 30 30 29 29 32 31 28 25 25 26 26 26 27 26 23 20 18 18 19 19 17 14 13
4 4 5 6 6 5 7 13 19 22 23 24 26 27 28 28 28 28 27 27 27 28 28 27 28 30 27 23 21 21 21 23 23 23 23 22 20 17 17 17 18 16 13 11
9 9 9 9 9 9 12 16 20 21 21 22 24 26 25 24 25 26 26 25 25 26 25 24 25 25 22 19 19 17 17 20 22 21 21 20 18 17 16 16 16 15 13 12
13 12 10 9 9 12 15 17 18 18 17 17 19 20 21 22 24 25 23 22 21 21 21 21 21 20 18 18 17 14 14 18 21 21 20 17 15 14 13 12 11 11 10 9
13 11 9 9 10 13 16 17 17 16 15 15 15 15 17 20 23 23 20 17 16 16 17 19 18 16 16 17 16 14 13 15 18 19 17 15 12 11 9 7 5 4 4 4
13 11 11 12 13 15 16 17 16 15 15 15 14 13 14 16 19 19 17 14 14 14 16 17 17 15 15 16 15 14 13 12 13 14 14 14 12 11 9 6 3 2 1 1
14 13 13 13 14 15 15 14 15 16 16 15 14 13 12 13 15 16 14 13 13 14 15 16 15 14 15 15 14 14 12 10 10 11 11 11 11 12 11 8 5 3 2 1
15 13 11 11 11 11 11 12 15 16 15 14 13 12 11 11 12 13 12 12 12 13 14 14 13 12 13 13 13 14 12 10 9 9 8 8 10 11 11 9 7 6 4 2
14 12 10 8 8 8 9 11 13 14 13 12 12 11 10 9 10 10 9 9 10 10 10 11 11 10 10 11 12 13 11 10 8 7 7 8 9 10 10 9 8 7 6 4
14 12 9 7 6 7 7 9 11 12 11 10 10 10 9 8 8 8 8 7 7 7 8 8 8 8 8 9 11 11 10 9 8 7 7 8 9 10 10 9 9 7 6 5
13 11 9 7 6 5 5 6 8 10 10 9 8 7 7 7 7 8 7 6 6 6 6 6 7 7 6 7 9 9 10 9 7 7 8 9 10 10 10 10 9 8 6 5
9 8 7 6 6 5 4 4 6 8 8 7 7 6 6 6 7 7 7 6 6 6 6 6 6 5 4 5 6 8 9 9 8 8 9 10 10 9 9 9 8 7 5 3
6 5 5 5 4 4 3 4 5 7 7 7 6 6 6 6 7 7 7 6 6 6 5 4 4 4 3 3 4 6 8 8 8 8 10 10 10 9 7 6 4 3 2 1
3 3 3 4 3 3 3 4 5 6 6 6 6 6 6 6 6 7 7 5 4 4 4 3 3 3 3 3 4 5 5 6 7 8 8 9 8 6 4 2 1 1 0 0
1 1 3 3 3 3 3 4 5 6 6 6 6 6 6 6 5 6 5 4 3 3 3 3 3 3 3 3 3 4 4 5 6 6 6 5 4 3 2 1 1 1 1 1
0 1 2 3 3 4 4 5 6 6 6 6 6 6 6 5 5 4 3 3 3 3 3 3 3 3 3 3 2 3 3 4 4 4 3 3 2 1 1 1 1 1 1 1
1 1 3 3 4 5 6 6 6 6 6 6 6 6 6 5 4 3 3 3 3 3 3 2 1 1 2 1 1 1 2 3 2 1 1 1 1 0 0 0 0 0 0 1
2 3 4 4 5 6 6 6 5 5 5 4 5 4 4 3 3 2 2 2 2 2 1 1 0 0 0 0 0 0 1 1 1 0 0 0 0 0 0 0 0 0 0 0
2 3 4 5 5 4 4 4 5 5 5 3 2 1 1 1 1 1 1 1 0 0 0 0 0 0 0 0 0 0 0 0 0 0 0 0 0 0 0 0 0 0 0 0
1 1 2 3 3 2 2 3 5 6 6 3 1 0 0 0 0 0 0 0 0 0 0 0 0 0 0 0 0 0 0 0 0 0 0 0 0 0 0 0 0 0 0 0

GEFSNGP_con_probscp_270.txt.gz
Probability
0 1 2 3 3 2 1 0 0 1 2 2 2 3 3 4 7 12 12 9 6 7 10 11 8 6 9 11 9 11 17 22 23 19 16 13 9 8 7 6 6 7 7 8
1 1 2 2 3 3 2 1 1 2 2 2 3 4 5 6 10 13 13 9 8 9 11 12 8 7 10 13 11 12 16 20 21 20 17 14 11 9 8 7 6 6 6 7
0 1 1 1 3 3 3 2 2 2 2 4 5 6 7 9 12 15 13 9 10 14 15 13 12 12 15 18 16 15 16 17 18 18 16 14 12 11 9 8 7 6 6 6
0 0 0 1 2 2 2 2 1 1 3 5 7 8 8 11 14 14 12 10 12 16 17 17 17 19 22 23 22 19 18 17 15 14 13 11 10 11 11 10 9 8 8 8
0 0 0 1 1 1 1 1 1 2 5 7 9 10 10 12 14 14 12 12 14 16 18 19 20 22 24 25 25 23 21 20 17 13 11 10 9 10 11 11 11 11 10 10
0 0 0 0 0 0 0 1 2 4 6 8 10 12 12 12 15 16 15 15 17 18 17 17 18 21 22 24 26 25 24 21 17 13 11 10 11 11 11 12 12 12 13 12
0 0 0 0 0 0 0 1 3 5 7 8 9 11 12 13 15 18 17 16 17 17 15 14 16 19 20 20 21 22 21 19 15 12 11 11 12 14 14 14 13 14 13 12
0 0 0 0 0 0 1 3 5 7 9 10 11 12 14 16 18 18 17 15 14 13 13 13 14 17 17 15 13 12 13 14 13 12 12 12 14 15 16 15 15 15 14 14
2 1 0 0 0 0 2 5 8 9 11 13 13 14 15 18 19 17 15 14 12 12 12 13 13 14 13 9 6 6 8 10 11 12 12 13 15 17 16 15 14 14 14 14
4 3 2 1 1 2 4 7 11 13 13 14 13 13 15 16 15 13 12 12 12 11 11 11 11 10 8 6 5 6 7 7 8 10 12 12 13 14 14 13 13 13 12 12
3 3 3 3 2 4 6 9 12 13 13 12 11 11 12 11 9 8 9 9 9 8 8 9 9 8 6 6 6 7 8 6 6 8 10 10 9 10 10 10 10 9 8 9
2 1 2 3 3 4 6 8 10 11 11 10 10 9 8 6 5 5 5 5 5 5 5 5 7 8 8 8 9 9 8 6 5 6 8 9 9 9 8 7 5 4 4 4
2 1 2 3 3 4 5 7 8 10 11 10 9 8 6 4 3 3 3 3 3 3 3 4 6 8 9 10 10 9 7 5 4 4 6 9 11 11 9 6 3 1 1 1
3 2 3 4 4 4 5 7 9 10 11 9 7 6 6 4 4 4 4 4 4 4 4 4 4 7 9 10 10 9 7 5 3 4 5 7 10 11 11 8 5 3 2 1
3 2 4 5 4 3 4 6 8 10 10 9 8 7 7 6 6 6 6 5 5 6 5 4 4 6 8 9 10 9 8 6 4 4 5 6 8 9 10 9 7 6 5 4
2 3 4 5 4 2 2 4 5 7 8 10 11 10 8 8 8 9 8 6 6 5 4 3 3 4 6 8 9 10 9 6 3 3 5 6 7 8 8 8 7 7 8 7
2 3 4 4 3 3 3 3 3 4 6 10 11 11 10 9 9 9 7 6 5 4 3 3 3 3 5 7 8 8 7 5 3 2 4 5 6 6 6 6 6 8 9 9
1 2 3 3 2 3 3 2 1 2 4 7 8 9 9 9 8 7 7 6 5 4 3 3 3 3 4 5 6 5 5 4 3 3 3 4 5 6 6 6 7 9 9 9
0 1 1 1 1 1 1 1 1 1 3 4 6 7 7 7 7 7 6 6 6 4 3 3 3 3 4 4 5 4 4 4 3 3 3 3 4 6 8 8 9 9 8 8
0 0 0 0 0 1 1 2 2 3 3 4 5 6 6 6 6 6 6 6 6 5 3 3 2 2 3 4 5 5 5 5 4 3 3 3 4 6 8 9 8 8 7 6
0 0 0 0 1 2 3 3 3 3 3 3 4 5 6 6 6 6 6 6 4 3 2 1 1 1 2 3 4 4 5 5 4 3 3 3 4 5 6 7 7 6 5 4
1 1 1 1 2 3 3 3 3 3 3 3 3 4 6 6 6 6 5 4 2 1 1 0 0 0 1 2 3 3 4 4 3 3 3 3 3 3 5 6 5 3 2 1
2 2 2 2 2 2 3 3 3 3 3 3 3 4 4 4 3 3 3 2 0 0 0 0 0 0 1 2 3 3 3 3 3 3 2 1 1 2 4 4 3 1 0 0
3 3 3 3 1 1 2 3 3 3 3 3 3 3 2 1 1 1 1 0 0 0 0 0 0 0 1 3 3 3 3 3 2 1 1 0 0 1 2 2 1 0 0 0
2 2 2 2 1 0 2 3 3 3 3 3 1 1 1 0 0 0 0 0 0 0 0 0 0 1 2 3 3 3 2 1 1 0 0 0 0 0 0 0 0 0 0 0
1 1 1 1 0 1 2 3 3 3 3 2 1 0 0 0 0 0 0 0 0 0 1 1 1 1 2 3 2 1 1 0 0 0 0 0 0 0 0 0 0 0 0 0
0 0 0 0 1 2 3 3 3 3 3 1 0 0 0 0 0 0 0 0 0 1 2 2 2 2 2 2 1 0 0 0 0 0 0 0 0 0 0 0 0 0 0 0